Regional Weather Roundup
Issued by NWS

Home | Current Version | Previous Version | Text Only | Print | Product List | Glossary On
Versions: 1 2 3 4 5 6 7 8 9 10 11 12 13 14 15 16 17 18 19 20 21 22 23 24 25 26 27
000
ASUS45 KBOU 232107
RWRCO

WEATHER ROUNDUP FOR COLORADO
NATIONAL WEATHER SERVICE DENVER/BOULDER CO
300 PM MDT MON OCT 23 2017

NOTE: "FAIR" INDICATES FEW OR NO CLOUDS BELOW 12000 FEET WITH NO
SIGNIFICANT WEATHER AND/OR OBSTRUCTIONS TO VISIBILITY.

COZ001>005-013-030-031-232200-
...NORTHWEST COLORADO...

CITY           SKY/WX    TMP DP  RH WIND       PRES   REMARKS
CRAIG          FAIR      62  19  19 NW18G26   30.48S
HAYDEN         FAIR      57  23  26 NW14G25   30.50S
MEEKER         FAIR      63  25  23 N16       30.48S
RABBIT EARS PA FAIR      36  25  64 W14G29    30.55S
STEAMBOAT SPGS FAIR      54  24  31 W23G29    30.48F
WALDEN         NOT AVBL
$$

COZ006>008-011-232200-
...WEST CENTRAL VALLEYS...

CITY           SKY/WX    TMP DP  RH WIND       PRES   REMARKS
GRAND JUNCTION FAIR      68  31  25 NW8       30.41F
MONTROSE       FAIR      64  28  25 N7        30.46F
EAGLE          FAIR      63  22  20 W16G29    30.45S
RIFLE          FAIR      66  29  24 W6        30.42F
DELTA          FAIR      72  28  19 W16       30.40F
NUCLA          FAIR      68  23  18 NW8       30.46F
$$

COZ017>023-064>068-232200-
...SOUTHWEST COLORADO...

CITY           SKY/WX    TMP DP  RH WIND       PRES   REMARKS
DURANGO        FAIR      66  26  22 VRB3      30.39F
CORTEZ         FAIR      71  25  17 NW18G24   30.40F
PAGOSA SPRINGS FAIR      64  19  17 SW8       30.44S
TELLURIDE      FAIR      58  15  18 CALM      30.58R
WOLF CREEK PAS FAIR      46  14  27 W7G18     30.70S
$$

COZ009-010-012-014-032>034-037-058>063-232200-
...CENTRAL COLORADO...

CITY           SKY/WX    TMP DP  RH WIND       PRES   REMARKS
ASPEN          FAIR      58  25  28 NW16G24   30.48F
BUENA VISTA    FAIR      64  12  13 N16G24    30.37F
COPPER MTN     FAIR      39  19  45 NW31G40   30.60F
BERTHOUD PASS  FAIR      30  21  69 NW51G66   30.51S WCI  12
COTTONWOOD PAS FAIR      59   5  11 SW18G39   30.46F
GUNNISON       FAIR      61  26  26 W13G21    30.44F
KREMMLING      FAIR      61  23  23 NW15G22   30.49R
LEADVILLE      FAIR      49  19  30 NW18G24   30.51F
MONARCH PASS   FAIR      45  18  33 W26G33    30.70F
SALIDA         FAIR      69  14  11 N6        30.42S
SUNLIGHT       FAIR      43  23  45 W7G18     30.67R
WILKERSON PASS FAIR      45  10  24 NW13G31   30.57R
$$

COZ069>075-232200-
...SAN LUIS VALLEY/SANGRE DE CRISTO MOUNTAINS...

CITY           SKY/WX    TMP DP  RH WIND       PRES   REMARKS
ALAMOSA        FAIR      65  23  20 VRB6      30.39F
DEL NORTE      FAIR      67  16  14 NW17G30   30.40F
LA VETA PASS   FAIR      54  23  30 SW10      30.61F
SAGUACHE       FAIR      64  23  20 NW25G38   30.39F
$$

COZ035-036-038>040-232200-
...NORTHERN COLORADO FRONT RANGE...

CITY           SKY/WX    TMP DP  RH WIND       PRES   REMARKS
DENVER INTL AP PTSUNNY   52  23  32 N8G20     30.42S
DMNS CITY PARK   N/A     52  26  37 W3G16     30.42F
AURORA         PTSUNNY   52  24  32 NE10      30.43S
FRONT RANGE AP NOT AVBL
ERIE MUNI ARPT FAIR      52  29  41 CALM      30.48F
BOULDER MUN AP FAIR      50  32  50 SW5       30.43S
CENTENNIAL     PTSUNNY   50  27  40 NE5       30.43S
BROOMFIELD     PTSUNNY   50  30  46 CALM      30.44S
FORT COLLINS   FAIR      51  33  50 SW12      30.42F
LONGMONT       FAIR      54  33  44 W3        30.44F
$$

COZ041-046-047-076>085-087-088-232200-
...PIKES PEAK/PALMER DIVIDE AND SOUTHERN FOOTHILLS...

CITY           SKY/WX    TMP DP  RH WIND       PRES   REMARKS
COLO. SPRINGS  PTSUNNY   51  32  48 E5        30.43S
A. F. ACADEMY  FAIR      49  31  49 E3        30.43R
SCHRIEVER AFB  CLOUDY    48  28  45 E10       30.43S
CHEYENNE MTN   PTSUNNY   46  32  57 SE7       30.38S
ELLICOTT         N/A    N/A N/A N/A N13       30.42R
FALCON         CLOUDY    47  28  48 N9        30.45R
FORT CARSON    CLOUDY    52  32  45 E5        30.41S
LIMON          FAIR      51  21  30 N21G31    30.41S
MONUMENT HILL  FAIR      43  28  56 NE7       30.46S
CANON CITY     FAIR      59  34  38 E14       30.39S
WALSENBURG     FAIR      57  34  41 E9G21     30.39S
TRINIDAD       FAIR      56  31  38 NE12      30.39S
$$

COZ042>045-048>051-090-091-232200-
...NORTHEAST COLORADO...

CITY           SKY/WX    TMP DP  RH WIND       PRES   REMARKS
GREELEY ARPT   FAIR      55  31  39 W10       30.41S
AKRON          PTSUNNY   53  17  24 N23G29    30.38F
BURLINGTON     FAIR      57  21  24 N21G39    30.35S
WRAY           NOT AVBL
YUMA           NOT AVBL
STERLING       PTSUNNY   55  21  26 N25G33    30.36F
HOLYOKE        FAIR      59  19  21 NW26G39   30.34S
FORT MORGAN    FAIR      57  16  19 N23G29    30.40F
$$

COZ086-089-092>099-232200-
...SOUTHEAST COLORADO...

CITY           SKY/WX    TMP DP  RH WIND       PRES   REMARKS
PUEBLO         FAIR      58  31  35 CALM      30.38F
LA JUNTA       FAIR      61  27  27 N13G20    30.38F
LAMAR          FAIR      63  24  22 N17G24    30.35S
SPRINGFIELD    NOT AVBL
$$




USA.gov is the U.S. government's official web portal to all federal, state and local government web resources and services.